Location: Bennemühlen
(52.5740°N, 9.7135°E)
Time: 01:01:53
(UTC+00:00)

A-11 Canister half - Pass Details

Date: 18 February 2026
Orbit: 1512 x 1687 km, 47.2° (Epoch: 8 March)

Event Time Altitude Azimuth Distance (km) Brightness Sun altitude
Rises 22:30:54 0° 256° (WSW) 4,931 11.7 -46.8°
Reaches altitude 10° 22:34:07 10° 254° (WSW) 3,932 11.1 -47.0°
Enters shadow 22:34:13 10° 254° (WSW) 3,905 11.1 -47.0°
Maximum altitude 22:44:02 65° 176° (S) 1,776 - -47.5°
Drops below altitude 10° 22:53:38 10° 98° (E) 3,814 - -48.0°
Sets 22:56:42 0° 95° (E) 4,775 - -48.1°
